This is the latest recevied weather packets stored in our database for station/object N6XE-13. If no packets are shown the sender has not sent any weather packets the latest 10 day(s).
| Time | Temp. | Humidity | Pressure | Rain* | Wind** | Luminosity | Snow |
|---|---|---|---|---|---|---|---|
| 1777905005 | 13.33° C | 82% | 1017.6 hPa | 0 mm | - | - | - |
| 1777903206 | 12.78° C | 84% | 1017.5 hPa | 0 mm | - | - | - |
| 1777901406 | 12.78° C | 85% | 1017.3 hPa | 0 mm | - | - | - |
| 1777899605 | 12.78° C | 85% | 1017.3 hPa | 0 mm | - | - | - |
| 1777897805 | 12.78° C | 85% | 1016.9 hPa | 0 mm | - | - | - |
| 1777896005 | 13.33° C | 82% | 1016.8 hPa | 0 mm | - | - | - |
| 1777894206 | 13.33° C | 82% | 1017 hPa | 0 mm | - | - | - |
| 1777892405 | 13.33° C | 82% | 1016.8 hPa | 0 mm | - | - | - |
| 1777890605 | 13.33° C | 81% | 1016.7 hPa | 0 mm | - | - | - |
| 1777888805 | 13.89° C | 81% | 1017.1 hPa | 0 mm | - | - | - |
| 1777887005 | 13.89° C | 81% | 1017 hPa | 0 mm | - | - | - |
| 1777885205 | 13.89° C | 82% | 1017 hPa | 0 mm | - | - | - |
| 1777883405 | 13.89° C | 83% | 1017.2 hPa | 0 mm | - | - | - |
| 1777881605 | 13.89° C | 82% | 1017 hPa | 0 mm | - | - | - |
| 1777879805 | 13.89° C | 79% | 1016.9 hPa | 0 mm | - | - | - |
| 1777878006 | 13.89° C | 79% | 1016.9 hPa | 0 mm | - | - | - |
| 1777876206 | 13.89° C | 79% | 1016.7 hPa | 0 mm | - | - | - |
| 1777874406 | 13.89° C | 79% | 1016.6 hPa | 0 mm | - | - | - |
| 1777849205 | 22.22° C | 54% | 1014 hPa | 0 mm | - | - | - |
| 1777847405 | 22.78° C | 54% | 1014 hPa | 0 mm | - | - | - |
| 1777843806 | 21.67° C | 57% | 1014.6 hPa | 0 mm | - | - | - |
| 1777842006 | 22.22° C | 57% | 1014.5 hPa | 0 mm | - | - | - |
| 1777840206 | 22.22° C | 56% | 1014.5 hPa | 0 mm | - | - | - |
| 1777838406 | 22.22° C | 55% | 1014.7 hPa | 0 mm | - | - | - |
| 1777836606 | 21.67° C | 56% | 1014.8 hPa | 0 mm | - | - | - |
* Rain latest hour (hover to see other rain measurements)
** Current wind speed in m/s (hover to see current wind gust speed)